Weather History for Whiteman AFB, MO

Change the Weather History Date:

Friday, April 12, 2013

  Actual Average Record
Temperature  
Mean Temperature 40 °F -  
Max Temperature 50 °F 63 °F 84 °F (2003)
Min Temperature 32 °F 43 °F 32 °F (1997)
Degree Days  
Heating Degree Days 24    
Moisture  
Dew Point 32 °F    
Average Humidity 77    
Maximum Humidity 100    
Minimum Humidity 53    
Precipitation  
Precipitation 0.00 in - - ()
Sea Level Pressure  
Sea Level Pressure 29.91 in    
Wind  
Wind Speed 10 mph (West)    
Max Wind Speed 15 mph    
Max Gust Speed -    
Visibility 10 miles    
Events      
Averages and records for this station are not official NWS values.
T = Trace of Precipitation, MM = Missing Value Source: NWS Daily Summary

Daily Weather History Graph

Daily Weather History Graph

Search for Another Location

Airport:

Trip Planner

Search our weather history database for the weather conditions in past years. The results will help you decide how hot, cold, wet, or windy it might be!

Date:

Astronomy

Apr. 12, 2013 Rise Set
Actual Time 6:41 AM CDT 7:48 PM CDT
Civil Twilight 6:14 AM CDT 8:15 PM CDT
Nautical Twilight 5:42 AM CDT 8:48 PM CDT
Astronomical Twilight 5:08 AM CDT 9:22 PM CDT
Moon 7:53 AM CDT (4/12) 10:18 PM CDT (4/12)
Length of Visible Light 14h 01m
Length of Day
13h 06m
Waxing Crescent, 5% of the Moon is Illuminated
Apr 12
Waxing Crescent
Apr 18
First Quarter
Apr 25
Full
May 2
Last Quarter
May 9
New

Hourly Weather History & Observations

Time (CDT) Temp. Windchill Dew Point Humidity Pressure Visibility Wind Dir Wind Speed Gust Speed Precip Events Conditions
12:58 AM 35.2 °F 27.6 °F 28.9 °F 78% 29.79 in 10.0 mi WSW 10.4 mph - N/A   Clear
1:58 AM 35.1 °F 27.4 °F 28.6 °F 77% 29.80 in 10.0 mi West 10.4 mph - N/A   Clear
2:58 AM 33.6 °F 26.8 °F 28.9 °F 83% 29.80 in 10.0 mi West 8.1 mph - N/A   Clear
3:58 AM 33.3 °F 25.1 °F 29.5 °F 86% 29.80 in 10.0 mi West 10.4 mph - N/A   Partly Cloudy
4:58 AM 32.5 °F 24.2 °F 30.4 °F 92% 29.82 in 10.0 mi West 10.4 mph - N/A   Clear
5:58 AM 33.3 °F 25.7 °F 31.5 °F 93% 29.82 in 10.0 mi West 9.2 mph - N/A   Overcast
6:13 AM 32.0 °F 23.0 °F 32.0 °F 100% 29.79 in 10.0 mi West 11.5 mph - N/A   Overcast
6:58 AM 33.1 °F 24.4 °F 31.6 °F 94% 29.84 in 10.0 mi West 11.5 mph - N/A   Overcast
7:56 AM 32.0 °F 22.5 °F 32.0 °F 100% 29.83 in 10.0 mi West 12.7 mph - N/A   Overcast
8:58 AM 35.1 °F 25.9 °F 31.5 °F 87% 29.89 in 10.0 mi West 13.8 mph - N/A   Overcast
9:08 AM 35.6 °F 27.1 °F 32.0 °F 87% 29.86 in 10.0 mi West 12.7 mph - N/A   Overcast
9:58 AM 36.9 °F 28.7 °F 30.7 °F 79% 29.91 in 10.0 mi West 12.7 mph - N/A   Overcast
10:58 AM 38.5 °F 30.3 °F 30.7 °F 74% 29.93 in 10.0 mi West 13.8 mph - N/A   Overcast
11:58 AM 39.9 °F 32.5 °F 30.9 °F 70% 29.96 in 10.0 mi WNW 12.7 mph - N/A   Overcast
12:23 PM 39.2 °F 31.2 °F 32.0 °F 75% 29.93 in 10.0 mi West 13.8 mph - N/A   Overcast
12:58 PM 41.0 °F 33.9 °F 31.1 °F 68% 29.97 in 10.0 mi West 12.7 mph - N/A   Overcast
1:58 PM 41.4 °F 34.3 °F 31.3 °F 67% 29.98 in 10.0 mi WSW 12.7 mph - N/A   Overcast
2:58 PM 43.9 °F 37.9 °F 32.5 °F 64% 29.98 in 10.0 mi West 11.5 mph - N/A   Overcast
3:58 PM 46.0 °F 39.6 °F 32.4 °F 59% 29.97 in 10.0 mi WSW 15.0 mph - N/A   Overcast
4:58 PM 48.9 °F - 33.3 °F 55% 29.96 in 10.0 mi West 12.7 mph - N/A   Mostly Cloudy
5:58 PM 49.6 °F - 33.6 °F 54% 29.96 in 10.0 mi West 9.2 mph - N/A   Mostly Cloudy
6:58 PM 49.5 °F - 33.1 °F 53% 29.96 in 10.0 mi West 10.4 mph - N/A   Scattered Clouds
7:58 PM 46.4 °F - 31.5 °F 56% 29.94 in 10.0 mi NW 2.3 mph - N/A   Clear
8:58 PM 41.4 °F - 34.3 °F 76% 29.99 in 10.0 mi NE 2.3 mph - N/A   Clear
9:58 PM 40.6 °F - 33.1 °F 74% 30.02 in 10.0 mi Calm Calm - N/A   Mostly Cloudy
10:58 PM 37.6 °F - 34.9 °F 90% 30.04 in 10.0 mi SW 2.3 mph - N/A   Clear
11:58 PM 41.2 °F - 34.2 °F 76% 30.04 in 10.0 mi WNW 2.3 mph - N/A   Clear